This is the latest recevied weather packets stored in our database for station/object WW6Q. If no packets are shown the sender has not sent any weather packets the latest 10 day(s).
| Time | Temp. | Humidity | Pressure | Rain* | Wind** | Luminosity | Snow |
|---|---|---|---|---|---|---|---|
| 1788611910 | 20.56° C | 97% | 1013.6 hPa | 0 mm | - | 102 W/m² | - |
| 1788611607 | 20.56° C | 98% | 1013.7 hPa | 0 mm | - | 85 W/m² | - |
| 1788611307 | 20.56° C | 97% | 1013.5 hPa | 0 mm | - | 101 W/m² | - |
| 1788611006 | 21.11° C | 96% | 1013.4 hPa | 0 mm | - | 59 W/m² | - |
| 1788610702 | 21.11° C | 97% | 1013.4 hPa | 0 mm | - | 42 W/m² | - |
| 1788610399 | 21.11° C | 97% | 1013.1 hPa | 0 mm | - | 44 W/m² | - |
| 1788610097 | 20.56° C | 99% | 1013.4 hPa | 0 mm | - | 38 W/m² | - |
| 1788609791 | 20.56° C | 99% | 1013.1 hPa | 0 mm | - | 33 W/m² | - |
| 1788609487 | 20° C | 99% | 1013.2 hPa | 0 mm | - | 30 W/m² | - |
| 1788609186 | 20° C | 99% | 1012.8 hPa | 0 mm | - | 26 W/m² | - |
| 1788608886 | 20° C | 99% | 1012.7 hPa | 0 mm | - | 23 W/m² | - |
| 1788608585 | 19.44° C | 99% | 1012.8 hPa | 0 mm | - | 19 W/m² | - |
| 1788608284 | 19.44° C | 99% | 1012.8 hPa | 0 mm | - | 14 W/m² | - |
| 1788607980 | 19.44° C | 99% | 1012.8 hPa | 0 mm | - | 10 W/m² | - |
| 1788607675 | 19.44° C | 99% | 1012.7 hPa | 0 mm | - | 6 W/m² | - |
| 1788607370 | 19.44° C | 99% | 1012.5 hPa | 0 mm | - | 4 W/m² | - |
| 1788607065 | 19.44° C | 99% | 1012.4 hPa | 0 mm | - | 3 W/m² | - |
| 1788606765 | 19.44° C | 99% | 1012.4 hPa | 0 mm | - | 2 W/m² | - |
| 1788606465 | 19.44° C | 99% | 1012.4 hPa | 0 mm | - | 1 W/m² | - |
| 1788606164 | 19.44° C | 99% | 1012.4 hPa | 0 mm | - | 1 W/m² | - |
| 1788605860 | 19.44° C | 99% | 1012.3 hPa | 0 mm | - | 0 W/m² | - |
| 1788605559 | 20° C | 99% | 1012.3 hPa | 0 mm | - | 0 W/m² | - |
| 1788605254 | 20° C | 99% | 1012.1 hPa | 0 mm | - | 0 W/m² | - |
| 1788604950 | 20° C | 99% | 1012.2 hPa | 0 mm | - | 0 W/m² | - |
| 1788604644 | 20° C | 99% | 1012.3 hPa | 0 mm | - | 0 W/m² | - |
* Rain latest hour (hover to see other rain measurements)
** Current wind speed in m/s (hover to see current wind gust speed)